User: anonymous   Login
Location: Albany
(35.0000°S, 118.0000°E)
Time: 14:50:49
(UTC-04:00)
Language:

Cosmos 1346 Rocket - Orbit

View from above orbital plane
View from above orbital plane
View from above satellite
View from above satellite

Ground track
Ground track

The orbit data is extracted from the following two-line orbital elements,

1 13121U 82027B   15185.48339152  .00000636  00000-0  40530-4 0  9993
2 13121 081.1650 218.4449 0028113 009.9625 350.2150 15.07055311809437
Epoch (UTC): 04 July 2015 11:36:05
Eccentricity: 0.0028113
inclination: 81.1650°
perigee height: 526 km
apogee height: 564 km
right ascension of ascending node: 218.4449°
argument of perigee: 9.9625°
revolutions per day: 15.07055311
mean anomaly at epoch: 350.2150°
orbit number at epoch: 80943

The dashed part of the orbit path shows where the satellite is in the earth's shadow,  

DLR